THOR ABLESTAR DEB, 659

Orbit data source: Space-Track

THOR ABLESTAR DEB, 659 is space debris in LEO originally from a launch on Thu, 29 Jun 1961 UTC launched from the Air Force Eastern Test Range (AFETR). Debris objects in space refer to the collection of defunct objects orbiting the Earth. Examples of debris include non-operational satellites, rocket bodies, and fragments generated from explosions, collisions, or faulty payload assembly.

Loading next visibility...
Identifier
659, 1961-015HL
Orbit
LEO
Country
Flag of USUS
Related business
Manufacturer
Unknown
Mission
Spacecraft
Bus & Motor
Unknown
Mass
Unknown
Launch date (UTC)
1961-06-29 (64 years ago)
Launch vehicle
Unknown
Launch site
Air Force Eastern Test Range (AFETR)
Object type
Payload
Rocket body
Debris
Shape & HBR
Unknown
Radar Cross Section
Small (<0.1 m²)

Expand to show TLE details & history
Last TLE update: 2 days ago

TLE from 2 days ago
0 THOR ABLESTAR DEB
1 00659U 61015HL  25260.48238907  .00000154  00000-0  56071-3 0  9991
2 00659  67.1596 270.5821 0578078  98.6146  48.9116 12.66621926956482
Epoch: 2025-09-17T11:34Z
TLE epoch observation values (Epoch: 2025-09-17T11:34:38.415Z)
Latitude
24.99286°
Longitude
-90.99966°
Altitude
1,118.092 km
Speed
7.426 km/s
True Right ascension
05h 17m 16s
True Declination
24° 52' 04"
Sunlit
Object was in daylight at epoch
Visualization orbit readout
Latitude
Unknown
Longitude
Unknown
Altitude
Unknown
Speed
Unknown
Apparent Right ascension
Unknown
Apparent Declination
Unknown
Sunlit
N/A
Visualization observer readout
Local Sidereal Time
17:15:10
Azimuth
Unknown
Elevation
Unknown
Doppler factor
Unknown
Orbital elements
Apogee altitude
1,843.476 km
Perigee altitude
944.876 km
Semi-major axis
7,772.313 km
Eccentricity
0.05781
Inclination
67.1596°
RAAN
270.5821°
Arg. of periapsis
98.6146°
True anomaly
54.14537°
Mean anomaly
48.9116°
Eccentric anomaly
51.50385°
Mean motion
3.16751 °/min
Orbital period
113.65 mins
BSTAR
0.00056071
Loading maneuver chart data...
Computing Atmospheric mass density...

Documentation

Showing up to 5 results
|